Location: Walnut Street Observatory
(41.0583°N, 76.2295°W)
Time: 18:36:38
(UTC-05:00)

Daily predictions for brighter satellites

Satellite Brightness Start Highest point End
(mag) Time Altitude Azimuth Time Altitude Azimuth Time Altitude Azimuth
FALCON 9 R/B 3.8 17:48:19 10° WSW 17:53:29 58° S 18:11:49 10° E
Cosmos 2227 Rocket 3.1 18:07:07 10° SW 18:12:37 53° WNW 18:18:10 10° NNE
Cosmos 2237 Rocket 3.4 18:08:38 10° NW 18:14:02 49° WSW 18:19:24 10° S
SPOT 3 Rocket 3.7 18:12:20 10° SSE 18:17:22 53° ENE 18:22:27 10° N
Cosmos 1420 Rocket 4.0 18:12:25 10° NNW 18:17:42 67° ENE 18:22:58 10° SSE
Cosmos 921 Rocket 3.7 18:14:05 10° N 18:18:15 35° ENE 18:22:20 10° SE
MONITOR-E 4.0 18:16:37 10° SSE 18:19:38 76° ENE 18:22:40 10° N
Cosmos 1674 Rocket 3.5 18:15:37 10° N 18:19:58 80° E 18:24:17 10° S
SL-16 R/B 2.2 18:14:43 10° NNW 18:20:25 77° ENE 18:26:03 10° SSE
ERS-2 3.1 18:21:12 10° SE 18:24:18 26° ENE 18:27:26 10° N
Cosmos 2297 Rocket 3.3 18:20:35 10° SW 18:26:02 48° WNW 18:31:31 10° NNE
COSMOS 2455 4.0 18:23:18 10° SSE 18:27:42 22° ESE 18:32:08 10° ENE
SeaSat 1 3.9 18:25:22 10° E 18:28:45 19° NE 18:32:08 10° N
Cosmos 405 4.2 18:25:58 10° SSW 18:29:20 46° WNW 18:32:46 10° N
Cosmos 1908 Rocket 3.6 18:25:45 10° S 18:30:10 63° E 18:34:35 10° NNE
USA 215 4.2 18:25:29 10° ENE 18:30:55 27° SE 18:36:18 10° S
MTI 3.8 18:28:20 10° N 18:31:32 85° WNW 18:34:44 10° SSW
YAOGAN 1 3.8 18:28:05 10° S 18:32:15 47° W 18:36:27 10° NNW
H-2A R/B 2.9 18:28:42 10° SSE 18:32:29 51° ENE 18:36:16 10° N
Cosmos 1733 Rocket 4.2 18:29:39 10° SSW 18:33:48 46° WNW 18:37:59 10° N
Aureole 3 4.1 18:28:50 10° S 18:34:32 78° W 18:38:58 10° N
Cosmos 1603 4.2 18:34:00 10° N 18:39:13 37° ENE 18:44:24 10° SE
SJ-6B 3.6 18:40:27 10° SE 18:43:45 29° ENE 18:47:07 10° N
Cosmos 1891 Rocket 4.4 18:38:32 10° N 18:44:44 73° E 18:50:47 10° SSE
Cosmos 2034 Rocket 4.0 18:39:10 10° N 18:45:30 62° E 18:51:46 10° SSE
Meteor 1-20 Rocket 4.3 18:41:41 10° S 18:47:24 86° W 18:53:16 10° N
Cosmos 1812 4.0 18:43:55 10° NNW 18:47:38 44° W 18:51:19 10° SSW
Envisat 3.7 18:44:02 10° SE 18:48:27 31° ENE 18:52:55 10° N
Cosmos 2263 Rocket 3.2 18:47:39 10° SSE 18:51:55 23° E 18:55:41 12° NE
OE (NEXTSAT) 4.3 18:50:00 10° WSW 18:53:34 85° SSE 18:55:48 21° ENE
Cosmos 494 Rocket 4.4 18:51:45 10° S 18:56:33 39° ESE 19:01:22 10° NE
CZ-2D R/B 3.9 18:53:04 10° SE 18:56:37 35° ENE 19:00:11 10° N
Cosmos 1975 Rocket 3.1 18:52:34 10° N 18:56:59 58° E 19:01:22 10° SSE
ATLAS CENTAUR R/B 2.9 18:54:21 10° N 18:57:27 20° NE 18:58:21 19° ENE
HJ-1C 3.6 18:54:16 10° SSE 18:57:34 47° ENE 19:00:52 10° N
CENTAUR R/B 3.1 18:52:49 10° SW 18:58:45 60° NW 19:05:36 10° NNE
Okean 1 3.2 18:55:21 10° N 18:59:22 89° W 19:03:19 10° S
Cosmos 1110 Rocket 4.2 18:58:37 10° N 19:03:46 50° ENE 19:08:55 10° SE
Cosmos 1602 3.6 19:00:06 10° S 19:03:58 69° E 19:07:51 10° NNE
CRYOSAT 2 4.4 18:59:50 10° NNE 19:04:37 54° E 19:09:22 10° S
USA 267 4.5 19:01:04 15° ENE 19:05:08 27° NNE 19:10:22 10° NW
Cosmos 1269 Rocket 4.1 19:01:07 10° SSW 19:06:23 81° WNW 19:11:42 10° NNE
Thor Agena Rocket 3.7 19:01:32 10° NNE 19:06:27 48° E 19:11:17 10° S
Meteor 1-4 Rocket 2.7 19:03:19 10° SSE 19:06:41 44° E 19:10:06 10° NNE
USA 32 4.1 19:04:10 10° S 19:09:23 81° W 19:14:39 10° N
BREEZE-M R/B 3.5 19:07:15 10° NW 19:09:51 77° NNE 19:14:37 19° ESE
Resurs 01 Rocket 2.3 19:15:19 31° E 19:15:46 32° ENE 19:19:42 10° N
OAO 2 Rocket 4.0 19:13:08 10° WSW 19:17:48 41° S 19:19:59 26° SE
FREGAT/IRIS 3.5 19:15:16 10° S 19:18:08 48° W 19:21:02 10° NNW
Cosmos 2227 4.2 19:14:26 10° SSW 19:20:10 86° WNW 19:25:55 10° NNE
Meteor 2-4 Rocket 3.8 19:15:14 10° N 19:20:56 57° ENE 19:26:25 10° SSE
Iridium 4 Rocket 4.2 19:18:30 10° NNW 19:23:03 47° W 19:27:13 10° SSW
Alouette 2 Rocket 3.0 19:23:36 10° S 19:27:08 62° E 19:30:53 10° NNE
Cosmos 1536 Rocket 4.3 19:23:21 10° N 19:26:42 34° NE 19:26:42 34° NE
Cosmos 1437 Rocket 4.0 19:23:48 10° SSW 19:27:42 45° WNW 19:31:40 10° N
Cosmos 1782 Rocket 4.5 19:24:01 10° SSW 19:28:20 51° W 19:32:38 10° N
CZ-4C R/B 3.2 19:21:54 10° NNW 19:28:43 46° NE 19:31:56 31° E
Meteor 1-19 Rocket 4.2 19:24:01 10° N 19:29:34 84° W 19:35:08 10° S
Cosmos 1536 4.0 19:26:47 10° S 19:34:42 10° NNE 19:28:49 27° SSE
Cosmos 1331 Rocket 3.9 19:28:28 10° NNW 19:33:48 81° ENE 19:37:34 20° SSE
Spot 2 Rocket 3.7 19:37:42 45° E 19:38:01 46° ENE 19:42:51 10° N
Meteor 1-11 Rocket 3.6 19:32:34 10° S 19:38:09 85° E 19:43:53 10° N
Geosat 4.2 19:40:31 46° ESE 19:40:31 46° ESE 19:45:06 10° S
Tsikada Rocket 4.5 19:36:54 10° SSW 19:43:15 64° W 19:49:38 10° N
Cosmos 1943 3.1 19:38:12 10° NNW 19:43:52 69° ENE 19:45:39 44° SE
USA 186 3.6 19:46:06 24° N 19:46:06 24° N 19:47:34 10° N
Gbstr 26 Del rocket 3.2 19:43:43 10° WSW 19:47:21 52° NNW 19:47:48 48° N
Cosmos 2251 Rocket 3.3 19:48:20 10° SSW 19:53:33 79° ESE 19:56:08 31° NNE
Okean 2 Rocket 4.2 19:50:29 10° SSW 19:54:40 43° WNW 19:58:53 10° N
ARGOS Delta rocket 4.5 19:51:33 10° N 19:56:12 53° WNW 20:00:37 10° SSW
Cosmos 1939 Rocket 3.7 20:01:06 44° NNW 20:01:06 44° NNW 20:03:57 10° NNW
Cosmos 2151 Rocket 3.9 19:59:45 10° SSW 20:04:13 67° W 20:08:40 10° N
Cosmos 1302 Rocket 3.8 20:00:03 10° NNW 20:05:16 86° ENE 20:05:18 86° E
SeaSat 1 2.6 20:04:38 50° S 20:05:47 68° WSW 20:10:44 10° NNW
COSMOS 2455 3.3 20:07:11 10° SW 20:13:07 61° WNW 20:17:38 18° NNE
USA 215 3.2 20:11:44 40° NE 20:14:19 80° NW 20:20:51 10° SW
Meteor 1-23 Rocket 4.3 20:09:17 10° NNW 20:15:08 80° W 20:16:31 54° S
Cosmos 2279 Rocket 3.8 20:13:36 10° N 20:19:44 80° ENE 20:19:44 80° ENE
Cosmos 2263 Rocket 3.0 20:30:06 10° SW 20:35:28 48° WNW 20:37:36 32° N
ATLAS CENTAUR R/B 3.4 20:32:31 10° NW 20:34:39 28° WNW 20:34:39 28° WNW
USA 267 3.7 20:48:24 52° N 20:48:24 52° N 20:53:41 10° NW
Resurs 01 Rocket 3.9 20:52:53 22° W 20:52:53 22° W 20:55:48 10° NW
CZ-3C R/B 4.4 20:54:16 10° SW 21:44:49 - ESE 20:57:13 22° S
CZ-4C R/B 3.7 21:10:27 10° NW 21:17:10 46° WSW 21:17:10 46° WSW
